When you browse on this site, cookies collect data to enhance your experience and personalize the content and advertising you see.
Visit our Privacy Policy to learn more. By continuing to use the site, you agree to this use of cookies and data.
  • In Österreich
  • Länderverzeichnis
  • Für 7 Tage
  • Wassertemperatur
  • Satellitenkarten
  • Wetterkarte
  • News
  • Widgets
  • user-avatar
    Anmelden

    Stündliche Wetter Lyahovichi

    Heute, 24 Mai, Freitag

    Zeit Temperatur Niederschläge Wind Luftdruck Luftfeuchtigkeit
    00:00 +16°C° 0 mm 1 m/S 745 mmHg 88%
    01:00 +15°C° 0 mm 1 m/S 745 mmHg 89%
    02:00 +15°C° 0 mm 1 m/S 745 mmHg 90%
    03:00 +15°C° 0 mm 1 m/S 745 mmHg 91%
    04:00 +15°C° 0 mm 1 m/S 745 mmHg 92%
    05:00 +14°C° 0 mm 2 m/S 745 mmHg 93%
    06:00 +16°C° 0 mm 2 m/S 745 mmHg 87%
    07:00 +18°C° 0 mm 2 m/S 745 mmHg 82%
    08:00 +20°C° 0 mm 2 m/S 745 mmHg 76%
    09:00 +21°C° 0.4 mm 2 m/S 745 mmHg 72%
    10:00 +23°C° 0.4 mm 2 m/S 745 mmHg 67%
    11:00 +25°C° 0.4 mm 2 m/S 745 mmHg 62%
    12:00 +25°C° 0.1 mm 2 m/S 745 mmHg 60%
    13:00 +25°C° 0.1 mm 2 m/S 745 mmHg 59%
    14:00 +26°C° 0.1 mm 2 m/S 745 mmHg 57%
    15:00 +25°C° 0.4 mm 2 m/S 745 mmHg 62%
    16:00 +24°C° 0.4 mm 2 m/S 744 mmHg 67%
    17:00 +24°C° 0.4 mm 2 m/S 744 mmHg 72%
    18:00 +21°C° 0.3 mm 2 m/S 744 mmHg 79%
    19:00 +20°C° 0.3 mm 2 m/S 744 mmHg 85%
    20:00 +18°C° 0.3 mm 2 m/S 744 mmHg 92%
    21:00 +17°C° 0 mm 2 m/S 744 mmHg 93%
    22:00 +16°C° 0 mm 2 m/S 744 mmHg 95%
    23:00 +16°C° 0 mm 2 m/S 744 mmHg 97%

    Morgen, 25 Mai, Samstag

    Zeit Temperatur Niederschläge Wind Luftdruck Luftfeuchtigkeit
    00:00 +15°C° 0 mm 2 m/S 744 mmHg 97%
    01:00 +15°C° 0 mm 2 m/S 744 mmHg 97%
    02:00 +14°C° 0 mm 2 m/S 744 mmHg 98%
    03:00 +14°C° 0 mm 2 m/S 744 mmHg 98%
    04:00 +14°C° 0 mm 2 m/S 744 mmHg 98%
    05:00 +14°C° 0 mm 2 m/S 744 mmHg 98%
    06:00 +15°C° 0 mm 2 m/S 744 mmHg 94%
    07:00 +16°C° 0 mm 2 m/S 744 mmHg 90%
    08:00 +17°C° 0 mm 3 m/S 744 mmHg 85%
    09:00 +19°C° 0 mm 3 m/S 744 mmHg 78%
    10:00 +21°C° 0 mm 4 m/S 744 mmHg 70%
    11:00 +22°C° 0 mm 4 m/S 744 mmHg 62%
    12:00 +23°C° 0 mm 4 m/S 744 mmHg 59%
    13:00 +23°C° 0 mm 5 m/S 743 mmHg 56%
    14:00 +25°C° 0 mm 5 m/S 743 mmHg 53%
    15:00 +23°C° 0 mm 5 m/S 743 mmHg 52%
    16:00 +23°C° 0 mm 4 m/S 743 mmHg 51%
    17:00 +22°C° 0 mm 4 m/S 743 mmHg 51%
    18:00 +20°C° 0 mm 3 m/S 743 mmHg 58%
    19:00 +19°C° 0 mm 2 m/S 743 mmHg 66%
    20:00 +17°C° 0 mm 2 m/S 744 mmHg 73%
    21:00 +16°C° 0 mm 2 m/S 744 mmHg 77%
    22:00 +15°C° 0 mm 2 m/S 744 mmHg 81%
    23:00 +15°C° 0 mm 2 m/S 744 mmHg 84%

    übermorgen, 26 Mai, Sonntag

    Zeit Temperatur Niederschläge Wind Luftdruck Luftfeuchtigkeit
    00:00 +14°C° 0 mm 2 m/S 744 mmHg 88%
    01:00 +13°C° 0 mm 2 m/S 745 mmHg 91%
    02:00 +13°C° 0 mm 2 m/S 745 mmHg 94%
    03:00 +12°C° 0 mm 2 m/S 745 mmHg 94%
    04:00 +12°C° 0 mm 2 m/S 745 mmHg 93%
    05:00 +12°C° 0 mm 2 m/S 745 mmHg 92%
    06:00 +13°C° 0 mm 2 m/S 745 mmHg 82%
    07:00 +15°C° 0 mm 2 m/S 746 mmHg 73%
    08:00 +17°C° 0 mm 2 m/S 746 mmHg 64%
    09:00 +18°C° 0 mm 3 m/S 746 mmHg 61%
    10:00 +19°C° 0 mm 3 m/S 746 mmHg 58%
    11:00 +20°C° 0 mm 4 m/S 746 mmHg 55%
    12:00 +20°C° 0 mm 4 m/S 746 mmHg 54%
    13:00 +21°C° 0 mm 4 m/S 745 mmHg 52%
    14:00 +22°C° 0 mm 4 m/S 745 mmHg 51%
    15:00 +22°C° 0 mm 4 m/S 745 mmHg 51%
    16:00 +21°C° 0 mm 5 m/S 745 mmHg 52%
    17:00 +21°C° 0 mm 5 m/S 745 mmHg 53%
    18:00 +20°C° 0 mm 4 m/S 745 mmHg 60%
    19:00 +19°C° 0 mm 4 m/S 745 mmHg 67%
    20:00 +17°C° 0 mm 3 m/S 745 mmHg 74%
    21:00 +17°C° 0 mm 3 m/S 745 mmHg 78%
    22:00 +16°C° 0 mm 3 m/S 745 mmHg 83%
    23:00 +14°C° 0 mm 3 m/S 746 mmHg 87%

    27 Mai, Montag

    Zeit Temperatur Niederschläge Wind Luftdruck Luftfeuchtigkeit
    00:00 +13°C° 0 mm 3 m/S 746 mmHg 90%
    01:00 +13°C° 0 mm 2 m/S 746 mmHg 93%
    02:00 +12°C° 0 mm 2 m/S 746 mmHg 96%
    03:00 +12°C° 0 mm 2 m/S 747 mmHg 95%
    04:00 +12°C° 0 mm 1 m/S 747 mmHg 94%
    05:00 +11°C° 0 mm 1 m/S 747 mmHg 94%
    06:00 +13°C° 0 mm 2 m/S 747 mmHg 84%
    07:00 +15°C° 0 mm 2 m/S 747 mmHg 74%
    08:00 +17°C° 0 mm 3 m/S 748 mmHg 64%
    09:00 +19°C° 0 mm 3 m/S 748 mmHg 59%
    10:00 +20°C° 0 mm 3 m/S 748 mmHg 54%
    11:00 +22°C° 0 mm 4 m/S 748 mmHg 49%
    12:00 +22°C° 0 mm 4 m/S 748 mmHg 48%
    13:00 +23°C° 0 mm 4 m/S 747 mmHg 48%
    14:00 +25°C° 0 mm 4 m/S 747 mmHg 47%
    15:00 +25°C° 0 mm 4 m/S 747 mmHg 49%
    16:00 +25°C° 0 mm 3 m/S 746 mmHg 51%
    17:00 +26°C° 0 mm 3 m/S 746 mmHg 53%
    18:00 +24°C° 0.1 mm 3 m/S 746 mmHg 64%
    19:00 +21°C° 0.1 mm 3 m/S 746 mmHg 75%
    20:00 +19°C° 0.1 mm 2 m/S 746 mmHg 86%
    21:00 +19°C° 0.3 mm 2 m/S 746 mmHg 88%
    22:00 +18°C° 0.3 mm 2 m/S 746 mmHg 90%
    23:00 +18°C° 0.3 mm 2 m/S 746 mmHg 93%

    28 Mai, Dienstag

    Zeit Temperatur Niederschläge Wind Luftdruck Luftfeuchtigkeit
    00:00 +18°C° 0 mm 2 m/S 746 mmHg 93%
    01:00 +17°C° 0 mm 2 m/S 746 mmHg 94%
    02:00 +18°C° 0 mm 1 m/S 746 mmHg 94%
    03:00 +18°C° 0 mm 1 m/S 746 mmHg 94%
    04:00 +18°C° 0 mm 1 m/S 746 mmHg 94%
    05:00 +18°C° 0 mm 2 m/S 746 mmHg 93%
    06:00 +19°C° 0 mm 2 m/S 746 mmHg 90%
    07:00 +20°C° 0 mm 2 m/S 746 mmHg 87%
    08:00 +21°C° 0 mm 2 m/S 746 mmHg 84%
    09:00 +22°C° 0.2 mm 3 m/S 746 mmHg 80%
    10:00 +23°C° 0.2 mm 4 m/S 745 mmHg 77%
    11:00 +25°C° 0.2 mm 5 m/S 745 mmHg 74%
    12:00 +25°C° 0.3 mm 4 m/S 745 mmHg 72%
    13:00 +25°C° 0.3 mm 4 m/S 745 mmHg 71%
    14:00 +26°C° 0.3 mm 3 m/S 745 mmHg 70%
    15:00 +26°C° 1.1 mm 3 m/S 744 mmHg 70%
    16:00 +26°C° 1.1 mm 3 m/S 744 mmHg 69%
    17:00 +27°C° 1.1 mm 3 m/S 744 mmHg 69%
    18:00 +25°C° 0.2 mm 3 m/S 744 mmHg 72%
    19:00 +24°C° 0.2 mm 3 m/S 744 mmHg 74%
    20:00 +21°C° 0.2 mm 3 m/S 744 mmHg 77%
    21:00 +21°C° 0 mm 3 m/S 744 mmHg 79%
    22:00 +20°C° 0 mm 3 m/S 744 mmHg 80%
    23:00 +20°C° 0 mm 4 m/S 744 mmHg 82%

    29 Mai, Mittwoch

    Zeit Temperatur Niederschläge Wind Luftdruck Luftfeuchtigkeit
    00:00 +19°C° 0 mm 4 m/S 744 mmHg 81%
    01:00 +19°C° 0 mm 4 m/S 744 mmHg 81%
    02:00 +18°C° 0 mm 4 m/S 743 mmHg 81%
    03:00 +18°C° 0.1 mm 4 m/S 743 mmHg 82%
    04:00 +17°C° 0.1 mm 3 m/S 743 mmHg 83%
    05:00 +17°C° 0.1 mm 3 m/S 743 mmHg 84%
    06:00 +18°C° 0.1 mm 4 m/S 744 mmHg 82%
    07:00 +19°C° 0.1 mm 4 m/S 744 mmHg 80%
    08:00 +20°C° 0.1 mm 4 m/S 744 mmHg 78%
    09:00 +22°C° 0 mm 4 m/S 744 mmHg 73%
    10:00 +25°C° 0 mm 4 m/S 744 mmHg 67%
    11:00 +27°C° 0 mm 4 m/S 744 mmHg 61%
    12:00 +28°C° 0.2 mm 4 m/S 744 mmHg 58%
    13:00 +28°C° 0.2 mm 4 m/S 744 mmHg 54%
    14:00 +29°C° 0.2 mm 4 m/S 744 mmHg 50%
    15:00 +29°C° 0.1 mm 4 m/S 744 mmHg 52%
    16:00 +28°C° 0.1 mm 4 m/S 744 mmHg 53%
    17:00 +28°C° 0.1 mm 4 m/S 744 mmHg 55%
    18:00 +26°C° 0.3 mm 3 m/S 745 mmHg 64%
    19:00 +24°C° 0.3 mm 2 m/S 745 mmHg 72%
    20:00 +22°C° 0.3 mm 1 m/S 745 mmHg 81%
    21:00 +21°C° 0 mm 1 m/S 745 mmHg 84%
    22:00 +20°C° 0 mm 1 m/S 745 mmHg 87%
    23:00 +19°C° 0 mm 1 m/S 746 mmHg 90%
    Mehr zeigen